Location: Paderno d�Adda
(45.6667°N, 9.4333°E)
Time: 09:35:07
(UTC+00:00)

ATLAS 3B R/B - Visible Passes

Search period start: 17 January 2021 00:00
Search period end: 27 January 2021 00:00
Orbit: 1013 x 1182 km, 63.8° (Epoch: 08 January)

Date Brightness Start Highest point End Pass type
(mag) Time Alt. Az. Time Alt. Az. Time Alt. Az.
17 Jan 3.4 17:33:19 10° NW 17:40:10 60° WSW 17:47:16 10° SSE visible
17 Jan 5.6 19:27:38 10° W 19:29:35 11° WSW 19:31:33 10° WSW visible
18 Jan 2.9 16:45:58 10° NW 16:52:58 90° WSW 17:00:14 10° SE visible
18 Jan 5.2 18:37:58 10° WNW 18:42:52 20° WSW 18:47:51 10° SSW visible
19 Jan 4.5 17:49:52 10° NW 17:56:00 33° WSW 18:02:18 10° S visible
20 Jan 3.8 17:02:14 10° NW 17:08:59 52° WSW 17:15:58 10° SSE visible
21 Jan 5.6 18:07:17 10° WNW 18:11:34 17° WSW 18:15:56 10° SW visible
22 Jan 5.6 06:10:20 10° SSE 06:14:42 19° ESE 06:19:06 10° ENE visible
22 Jan 5.0 17:18:55 10° NW 17:24:45 29° WSW 17:30:44 10° SSW visible
24 Jan 6.0 17:36:46 10° WNW 17:40:16 14° WSW 17:43:48 10° SW visible
25 Jan 5.3 05:38:31 10° SSE 05:43:24 23° ESE 05:48:20 10° ENE visible
25 Jan 5.5 16:48:02 10° WNW 16:53:29 25° WSW 16:59:05 10° SSW visible
26 Jan 5.7 04:54:06 10° SE 04:56:41 13° ESE 04:59:17 10° E visible
